Time,TemperatureF,DewpointF,PressureIn,WindDirection,WindDirectionDegrees,WindSpeedMPH,WindSpeedGustMPH,Humidity,HourlyPrecipIn,Conditions,Clouds,dailyrainin,SoftwareType,DateUTC
2013-04-23 00:04:00,42.6,24.0,30.46,East,96,8.0,9.0,49,0.00,,,0.00,weatherlink.com 1.10,2013-04-23 04:04:00,
2013-04-23 00:19:00,42.4,25.0,30.46,SE,132,1.0,5.0,51,0.00,,,0.00,weatherlink.com 1.10,2013-04-23 04:19:00,
2013-04-23 00:34:00,42.0,26.0,30.46,ESE,116,1.0,7.0,54,0.00,,,0.00,weatherlink.com 1.10,2013-04-23 04:34:00,
2013-04-23 00:49:00,41.8,27.0,30.46,ESE,123,0.0,8.0,56,0.00,,,0.00,weatherlink.com 1.10,2013-04-23 04:49:00,
2013-04-23 01:04:00,41.6,28.0,30.46,ESE,123,2.0,10.0,58,0.00,,,0.00,weatherlink.com 1.10,2013-04-23 05:04:00,
2013-04-23 01:19:00,41.5,28.0,30.46,ESE,115,2.0,13.0,60,0.00,,,0.00,weatherlink.com 1.10,2013-04-23 05:19:00,
2013-04-23 01:34:00,41.2,29.0,30.45,ESE,119,0.0,10.0,61,0.00,,,0.00,weatherlink.com 1.10,2013-04-23 05:34:00,
2013-04-23 01:49:00,41.0,30.0,30.45,ESE,119,3.0,15.0,64,0.00,,,0.00,weatherlink.com 1.10,2013-04-23 05:49:00,
2013-04-23 02:04:00,41.0,30.0,30.45,ESE,116,1.0,15.0,64,0.00,,,0.00,weatherlink.com 1.10,2013-04-23 06:04:00,
2013-04-23 02:19:00,40.7,30.0,30.45,ESE,117,1.0,10.0,66,0.00,,,0.00,weatherlink.com 1.10,2013-04-23 06:19:00,
2013-04-23 02:34:00,40.5,30.0,30.44,ESE,111,2.0,12.0,67,0.00,,,0.00,weatherlink.com 1.10,2013-04-23 06:34:00,
2013-04-23 02:50:00,40.2,30.0,30.43,SE,132,1.0,10.0,68,0.00,,,0.00,weatherlink.com 1.10,2013-04-23 06:50:00,
2013-04-23 03:05:00,40.0,31.0,30.43,ESE,111,2.0,10.0,69,0.00,,,0.00,weatherlink.com 1.10,2013-04-23 07:05:00,
2013-04-23 03:20:00,39.8,31.0,30.43,ESE,119,4.0,10.0,70,0.00,,,0.00,weatherlink.com 1.10,2013-04-23 07:20:00,
2013-04-23 03:35:00,39.7,31.0,30.43,ESE,114,2.0,10.0,71,0.00,,,0.00,weatherlink.com 1.10,2013-04-23 07:35:00,
2013-04-23 03:50:00,39.6,31.0,30.42,SE,126,3.0,11.0,72,0.00,,,0.00,weatherlink.com 1.10,2013-04-23 07:50:00,
2013-04-23 04:05:00,39.6,32.0,30.43,ESE,123,0.0,11.0,73,0.00,,,0.00,weatherlink.com 1.10,2013-04-23 08:05:00,
2013-04-23 04:20:00,39.5,32.0,30.42,SE,125,0.0,10.0,74,0.00,,,0.00,weatherlink.com 1.10,2013-04-23 08:20:00,
2013-04-23 04:35:00,39.3,32.0,30.42,ESE,111,7.0,9.0,74,0.00,,,0.00,weatherlink.com 1.10,2013-04-23 08:35:00,
2013-04-23 04:50:00,39.1,32.0,30.41,SE,126,0.0,8.0,75,0.00,,,0.00,weatherlink.com 1.10,2013-04-23 08:50:00,
2013-04-23 05:05:00,38.8,32.0,30.41,ESE,114,1.0,10.0,76,0.00,,,0.00,weatherlink.com 1.10,2013-04-23 09:05:00,
2013-04-23 05:20:00,38.7,32.0,30.41,ESE,123,0.0,7.0,77,0.00,,,0.00,weatherlink.com 1.10,2013-04-23 09:20:00,
2013-04-23 05:35:00,38.6,32.0,30.41,SE,135,1.0,8.0,77,0.00,,,0.00,weatherlink.com 1.10,2013-04-23 09:35:00,
2013-04-23 05:50:00,38.5,32.0,30.41,SE,144,0.0,5.0,78,0.00,,,0.00,weatherlink.com 1.10,2013-04-23 09:50:00,
2013-04-23 06:05:00,38.3,32.0,30.40,SE,142,0.0,4.0,79,0.00,,,0.00,weatherlink.com 1.10,2013-04-23 10:05:00,
2013-04-23 06:20:00,38.0,32.0,30.40,ESE,121,0.0,4.0,80,0.00,,,0.00,weatherlink.com 1.10,2013-04-23 10:20:00,
2013-04-23 06:35:00,38.0,32.0,30.41,ESE,120,0.0,4.0,80,0.00,,,0.00,weatherlink.com 1.10,2013-04-23 10:35:00,
2013-04-23 06:50:00,37.9,33.0,30.41,SE,124,0.0,4.0,81,0.00,,,0.00,weatherlink.com 1.10,2013-04-23 10:50:00,
2013-04-23 07:05:00,38.0,33.0,30.41,ESE,110,0.0,4.0,81,0.00,,,0.00,weatherlink.com 1.10,2013-04-23 11:05:00,
2013-04-23 07:20:00,38.4,33.0,30.40,SE,129,0.0,6.0,81,0.00,,,0.00,weatherlink.com 1.10,2013-04-23 11:20:00,
2013-04-23 07:35:00,39.1,34.0,30.40,ESE,109,0.0,8.0,81,0.00,,,0.00,weatherlink.com 1.10,2013-04-23 11:35:00,
2013-04-23 07:50:00,39.8,34.0,30.41,ESE,116,2.0,5.0,80,0.00,,,0.00,weatherlink.com 1.10,2013-04-23 11:50:00,
2013-04-23 08:05:00,40.5,34.0,30.41,ESE,115,2.0,11.0,79,0.00,,,0.00,weatherlink.com 1.10,2013-04-23 12:05:00,
2013-04-23 08:20:00,41.3,35.0,30.40,ESE,113,0.0,10.0,78,0.00,,,0.00,weatherlink.com 1.10,2013-04-23 12:20:00,
2013-04-23 08:35:00,41.8,35.0,30.41,ESE,106,7.0,8.0,77,0.00,,,0.00,weatherlink.com 1.10,2013-04-23 12:35:00,
2013-04-23 08:50:00,42.9,36.0,30.41,ESE,103,5.0,5.0,76,0.00,,,0.00,weatherlink.com 1.10,2013-04-23 12:50:00,
2013-04-23 09:05:00,43.7,37.0,30.42,ESE,122,0.0,9.0,76,0.00,,,0.00,weatherlink.com 1.10,2013-04-23 13:05:00,
2013-04-23 09:20:00,44.8,37.0,30.42,ESE,116,5.0,10.0,73,0.00,,,0.00,weatherlink.com 1.10,2013-04-23 13:20:00,
2013-04-23 09:35:00,45.6,37.0,30.42,ESE,123,0.0,10.0,71,0.00,,,0.00,weatherlink.com 1.10,2013-04-23 13:35:00,
2013-04-23 09:50:00,46.5,36.0,30.41,SE,136,5.0,9.0,68,0.00,,,0.00,weatherlink.com 1.10,2013-04-23 13:50:00,
2013-04-23 10:05:00,48.3,37.0,30.41,East,80,0.0,3.0,66,0.00,,,0.00,weatherlink.com 1.10,2013-04-23 14:05:00,
2013-04-23 10:21:00,49.2,37.0,30.41,SE,126,0.0,5.0,62,0.00,,,0.00,weatherlink.com 1.10,2013-04-23 14:21:00,
2013-04-23 10:36:00,50.5,37.0,30.41,SSE,157,1.0,3.0,61,0.00,,,0.00,weatherlink.com 1.10,2013-04-23 14:36:00,
2013-04-23 10:51:00,51.6,35.0,30.43,WSW,240,0.0,8.0,54,0.00,,,0.00,weatherlink.com 1.10,2013-04-23 14:51:00,
2013-04-23 11:06:00,53.3,36.0,30.41,East,94,6.0,7.0,53,0.00,,,0.00,weatherlink.com 1.10,2013-04-23 15:06:00,
2013-04-23 11:21:00,54.9,35.0,30.41,East,90,1.0,9.0,48,0.00,,,0.00,weatherlink.com 1.10,2013-04-23 15:21:00,
2013-04-23 11:36:00,55.7,36.0,30.40,East,83,0.0,9.0,47,0.00,,,0.00,weatherlink.com 1.10,2013-04-23 15:36:00,
2013-04-23 11:51:00,57.3,36.0,30.39,SE,136,1.0,5.0,45,0.00,,,0.00,weatherlink.com 1.10,2013-04-23 15:51:00,
2013-04-23 12:06:00,58.5,33.0,30.39,West,279,1.0,5.0,38,0.00,,,0.00,weatherlink.com 1.10,2013-04-23 16:06:00,
2013-04-23 12:21:00,59.6,34.0,30.39,SE,139,2.0,5.0,39,0.00,,,0.00,weatherlink.com 1.10,2013-04-23 16:21:00,
2013-04-23 12:36:00,60.7,34.0,30.38,NNW,345,4.0,5.0,37,0.00,,,0.00,weatherlink.com 1.10,2013-04-23 16:36:00,
2013-04-23 12:51:00,60.7,32.0,30.37,SW,225,1.0,4.0,34,0.00,,,0.00,weatherlink.com 1.10,2013-04-23 16:51:00,
2013-04-23 13:06:00,62.4,34.0,30.36,West,259,4.0,7.0,34,0.00,,,0.00,weatherlink.com 1.10,2013-04-23 17:06:00,
2013-04-23 13:21:00,61.7,34.0,30.35,SE,131,3.0,4.0,35,0.00,,,0.00,weatherlink.com 1.10,2013-04-23 17:21:00,
2013-04-23 13:36:00,62.1,34.0,30.35,SSW,192,0.0,9.0,35,0.00,,,0.00,weatherlink.com 1.10,2013-04-23 17:36:00,
2013-04-23 13:51:00,62.1,33.0,30.34,SSW,192,1.0,6.0,34,0.00,,,0.00,weatherlink.com 1.10,2013-04-23 17:51:00,
2013-04-23 14:06:00,62.7,33.0,30.33,West,275,0.0,7.0,33,0.00,,,0.00,weatherlink.com 1.10,2013-04-23 18:06:00,
2013-04-23 14:21:00,65.0,34.0,30.33,NW,306,1.0,5.0,31,0.00,,,0.00,weatherlink.com 1.10,2013-04-23 18:21:00,
2013-04-23 14:36:00,63.8,32.0,30.33,SSW,205,0.0,7.0,31,0.00,,,0.00,weatherlink.com 1.10,2013-04-23 18:36:00,
2013-04-23 14:51:00,63.4,33.0,30.31,ESE,115,0.0,6.0,32,0.00,,,0.00,weatherlink.com 1.10,2013-04-23 18:51:00,
2013-04-23 15:06:00,63.9,33.0,30.30,NNE,20,0.0,7.0,32,0.00,,,0.00,weatherlink.com 1.10,2013-04-23 19:06:00,
2013-04-23 15:21:00,65.4,34.0,30.29,NW,313,0.0,6.0,31,0.00,,,0.00,weatherlink.com 1.10,2013-04-23 19:21:00,
2013-04-23 15:36:00,65.0,32.0,30.29,SW,225,0.0,8.0,29,0.00,,,0.00,weatherlink.com 1.10,2013-04-23 19:36:00,
2013-04-23 15:52:00,64.9,32.0,30.29,SW,218,0.0,7.0,29,0.00,,,0.00,weatherlink.com 1.10,2013-04-23 19:52:00,
2013-04-23 16:07:00,66.1,32.0,30.28,SSE,164,4.0,5.0,28,0.00,,,0.00,weatherlink.com 1.10,2013-04-23 20:07:00,
2013-04-23 16:22:00,65.9,33.0,30.27,North,350,3.0,5.0,29,0.00,,,0.00,weatherlink.com 1.10,2013-04-23 20:22:00,
2013-04-23 16:37:00,66.3,33.0,30.27,SSE,155,7.0,9.0,29,0.00,,,0.00,weatherlink.com 1.10,2013-04-23 20:37:00,
2013-04-23 16:52:00,65.5,31.0,30.27,South,185,0.0,9.0,28,0.00,,,0.00,weatherlink.com 1.10,2013-04-23 20:52:00,
2013-04-23 17:07:00,65.3,30.0,30.25,ESE,119,2.0,11.0,27,0.00,,,0.00,weatherlink.com 1.10,2013-04-23 21:07:00,
2013-04-23 17:22:00,66.1,31.0,30.25,West,267,3.0,7.0,27,0.00,,,0.00,weatherlink.com 1.10,2013-04-23 21:22:00,
2013-04-23 17:37:00,65.3,30.0,30.25,ESE,103,1.0,9.0,27,0.00,,,0.00,weatherlink.com 1.10,2013-04-23 21:37:00,
2013-04-23 17:52:00,65.4,30.0,30.25,SSE,148,0.0,3.0,27,0.00,,,0.00,weatherlink.com 1.10,2013-04-23 21:52:00,
2013-04-23 18:07:00,65.4,32.0,30.25,ESE,106,4.0,12.0,29,0.00,,,0.00,weatherlink.com 1.10,2013-04-23 22:07:00,
2013-04-23 18:22:00,65.5,32.0,30.26,SW,217,0.0,8.0,29,0.00,,,0.00,weatherlink.com 1.10,2013-04-23 22:22:00,
2013-04-23 18:37:00,65.6,32.0,30.26,NNE,22,0.0,6.0,29,0.00,,,0.00,weatherlink.com 1.10,2013-04-23 22:37:00,
2013-04-23 18:52:00,65.0,34.0,30.26,SSW,198,0.0,0.0,32,0.00,,,0.00,weatherlink.com 1.10,2013-04-23 22:52:00,
2013-04-23 19:07:00,63.5,34.0,30.25,East,100,0.0,2.0,34,0.00,,,0.00,weatherlink.com 1.10,2013-04-23 23:07:00,
2013-04-23 19:22:00,62.1,39.0,30.26,East,100,0.0,0.0,42,0.00,,,0.00,weatherlink.com 1.10,2013-04-23 23:22:00,
2013-04-23 19:37:00,60.8,35.0,30.25,ESE,121,1.0,5.0,39,0.00,,,0.00,weatherlink.com 1.10,2013-04-23 23:37:00,
2013-04-23 19:52:00,60.4,39.0,30.26,ESE,107,0.0,0.0,46,0.00,,,0.00,weatherlink.com 1.10,2013-04-23 23:52:00,
2013-04-23 20:07:00,57.6,40.0,30.25,ESE,107,0.0,0.0,53,0.00,,,0.00,weatherlink.com 1.10,2013-04-24 00:07:00,
2013-04-23 20:22:00,56.2,40.0,30.24,ESE,107,2.0,3.0,55,0.00,,,0.00,weatherlink.com 1.10,2013-04-24 00:22:00,
2013-04-23 20:37:00,57.5,40.0,30.22,ESE,122,0.0,4.0,52,0.00,,,0.00,weatherlink.com 1.10,2013-04-24 00:37:00,
2013-04-23 20:52:00,56.5,38.0,30.23,SE,134,0.0,4.0,51,0.00,,,0.00,weatherlink.com 1.10,2013-04-24 00:52:00,
2013-04-23 21:07:00,54.4,39.0,30.22,ESE,121,1.0,3.0,57,0.00,,,0.00,weatherlink.com 1.10,2013-04-24 01:07:00,
2013-04-23 21:22:00,53.1,39.0,30.23,ESE,121,0.0,0.0,60,0.00,,,0.00,weatherlink.com 1.10,2013-04-24 01:22:00,
2013-04-23 21:37:00,53.7,38.0,30.23,ESE,123,0.0,4.0,56,0.00,,,0.00,weatherlink.com 1.10,2013-04-24 01:37:00,
2013-04-23 21:52:00,55.1,38.0,30.23,ESE,111,0.0,8.0,53,0.00,,,0.00,weatherlink.com 1.10,2013-04-24 01:52:00,
2013-04-23 22:07:00,56.1,40.0,30.23,ESE,122,1.0,9.0,56,0.00,,,0.00,weatherlink.com 1.10,2013-04-24 02:07:00,
2013-04-23 22:22:00,56.2,41.0,30.24,SE,126,0.0,7.0,58,0.00,,,0.00,weatherlink.com 1.10,2013-04-24 02:22:00,
2013-04-23 22:37:00,55.4,42.0,30.24,ESE,116,0.0,9.0,60,0.00,,,0.00,weatherlink.com 1.10,2013-04-24 02:37:00,
2013-04-23 23:07:00,53.9,42.0,30.24,ESE,120,1.0,7.0,64,0.00,,,0.00,weatherlink.com 1.10,2013-04-24 03:07:00,
2013-04-23 23:22:00,53.2,42.0,30.24,ESE,117,0.0,3.0,66,0.00,,,0.00,weatherlink.com 1.10,2013-04-24 03:22:00,
2013-04-23 23:52:00,54.0,43.0,30.23,ESE,103,2.0,7.0,66,0.00,,,0.00,weatherlink.com 1.10,2013-04-24 03:52:00,